When you browse on this site, cookies collect data to enhance your experience and personalize the content and advertising you see.
Visit our Privacy Policy to learn more. By continuing to use the site, you agree to this use of cookies and data.
  • In Austria
  • List of Countries
  • For 7 days
  • Water Temperature
  • Weather Map
  • News
  • Weather Widgets
  • user-avatar
    Login

    Hourly Weather Newcastle

    Today, 5 June, Friday

    Time Temperature Precipitation Wind Pressure Humidity
    00:00 +14°C° 0 mm 2 mps 750 mmHg 90%
    01:00 +13°C° 0 mm 3 mps 751 mmHg 89%
    02:00 +13°C° 0 mm 3 mps 751 mmHg 87%
    03:00 +12°C° 0 mm 3 mps 751 mmHg 88%
    04:00 +12°C° 0 mm 2 mps 751 mmHg 88%
    05:00 +12°C° 0 mm 2 mps 752 mmHg 88%
    06:00 +13°C° 0 mm 3 mps 752 mmHg 76%
    07:00 +16°C° 0 mm 3 mps 752 mmHg 65%
    08:00 +18°C° 0 mm 3 mps 753 mmHg 53%
    09:00 +20°C° 0 mm 3 mps 752 mmHg 48%
    10:00 +22°C° 0 mm 3 mps 752 mmHg 44%
    11:00 +23°C° 0 mm 4 mps 751 mmHg 39%
    12:00 +26°C° 0 mm 4 mps 751 mmHg 40%
    13:00 +27°C° 0 mm 5 mps 750 mmHg 41%
    14:00 +28°C° 0 mm 5 mps 750 mmHg 42%
    15:00 +27°C° 0.3 mm 5 mps 750 mmHg 51%
    16:00 +26°C° 0.3 mm 4 mps 749 mmHg 60%
    17:00 +25°C° 0.3 mm 4 mps 749 mmHg 68%
    18:00 +22°C° 0.9 mm 4 mps 749 mmHg 75%
    19:00 +20°C° 0.9 mm 3 mps 750 mmHg 82%
    20:00 +19°C° 0.9 mm 3 mps 750 mmHg 90%
    21:00 +17°C° 0.2 mm 2 mps 750 mmHg 90%
    22:00 +15°C° 0.2 mm 2 mps 750 mmHg 91%
    23:00 +13°C° 0.2 mm 1 mps 750 mmHg 92%

    Tomorrow, 6 June, Saturday

    Time Temperature Precipitation Wind Pressure Humidity
    00:00 +13°C° 0 mm 1 mps 750 mmHg 93%
    01:00 +12°C° 0 mm 1 mps 751 mmHg 94%
    02:00 +12°C° 0 mm 1 mps 751 mmHg 95%
    03:00 +11°C° 0 mm 1 mps 751 mmHg 95%
    04:00 +11°C° 0 mm 1 mps 750 mmHg 94%
    05:00 +10°C° 0 mm 2 mps 750 mmHg 94%
    06:00 +12°C° 0 mm 2 mps 750 mmHg 91%
    07:00 +13°C° 0 mm 2 mps 750 mmHg 88%
    08:00 +12°C° 0 mm 3 mps 750 mmHg 84%
    09:00 +13°C° 0 mm 3 mps 750 mmHg 81%
    10:00 +13°C° 0 mm 3 mps 750 mmHg 77%
    11:00 +14°C° 0 mm 3 mps 749 mmHg 74%
    12:00 +13°C° 0.1 mm 3 mps 749 mmHg 79%
    13:00 +12°C° 0.1 mm 3 mps 749 mmHg 83%
    14:00 +11°C° 0.1 mm 3 mps 748 mmHg 88%
    15:00 +10°C° 1.8 mm 3 mps 748 mmHg 91%
    16:00 +8°C° 1.8 mm 4 mps 748 mmHg 94%
    17:00 +7°C° 1.8 mm 4 mps 748 mmHg 97%
    18:00 +8°C° 2.4 mm 3 mps 748 mmHg 97%
    19:00 +8°C° 2.4 mm 3 mps 748 mmHg 97%
    20:00 +8°C° 2.4 mm 3 mps 748 mmHg 98%
    21:00 +8°C° 0.7 mm 3 mps 748 mmHg 97%
    22:00 +8°C° 0.7 mm 3 mps 748 mmHg 97%
    23:00 +8°C° 0.7 mm 3 mps 749 mmHg 97%

    Day after tomorrow, 7 June, Sunday

    Time Temperature Precipitation Wind Pressure Humidity
    00:00 +8°C° 0.2 mm 3 mps 749 mmHg 97%
    01:00 +8°C° 0.2 mm 3 mps 749 mmHg 97%
    02:00 +8°C° 0.2 mm 3 mps 749 mmHg 97%
    03:00 +7°C° 0 mm 3 mps 749 mmHg 96%
    04:00 +7°C° 0 mm 3 mps 750 mmHg 95%
    05:00 +7°C° 0 mm 2 mps 750 mmHg 94%
    06:00 +7°C° 0 mm 3 mps 750 mmHg 92%
    07:00 +8°C° 0 mm 3 mps 751 mmHg 91%
    08:00 +9°C° 0 mm 3 mps 752 mmHg 90%
    09:00 +10°C° 0 mm 3 mps 752 mmHg 78%
    10:00 +12°C° 0 mm 4 mps 752 mmHg 65%
    11:00 +14°C° 0 mm 5 mps 752 mmHg 53%
    12:00 +15°C° 0 mm 4 mps 752 mmHg 50%
    13:00 +15°C° 0 mm 4 mps 752 mmHg 47%
    14:00 +17°C° 0 mm 4 mps 752 mmHg 45%
    15:00 +17°C° 0 mm 3 mps 752 mmHg 45%
    16:00 +17°C° 0 mm 3 mps 752 mmHg 46%
    17:00 +16°C° 0 mm 3 mps 752 mmHg 47%
    18:00 +14°C° 0 mm 2 mps 752 mmHg 54%
    19:00 +12°C° 0 mm 2 mps 752 mmHg 62%
    20:00 +10°C° 0 mm 1 mps 753 mmHg 69%
    21:00 +9°C° 0 mm 1 mps 753 mmHg 70%
    22:00 +8°C° 0 mm 1 mps 753 mmHg 71%
    23:00 +7°C° 0 mm 1 mps 753 mmHg 72%

    8 June, Monday

    Time Temperature Precipitation Wind Pressure Humidity
    00:00 +6°C° 0 mm 2 mps 753 mmHg 73%
    01:00 +6°C° 0 mm 2 mps 753 mmHg 73%
    02:00 +6°C° 0 mm 2 mps 753 mmHg 74%
    03:00 +6°C° 0 mm 2 mps 753 mmHg 73%
    04:00 +5°C° 0 mm 3 mps 753 mmHg 72%
    05:00 +5°C° 0 mm 3 mps 754 mmHg 70%
    06:00 +8°C° 0 mm 3 mps 754 mmHg 63%
    07:00 +10°C° 0 mm 4 mps 755 mmHg 56%
    08:00 +12°C° 0 mm 4 mps 755 mmHg 49%
    09:00 +14°C° 0 mm 4 mps 755 mmHg 46%
    10:00 +16°C° 0 mm 3 mps 755 mmHg 43%
    11:00 +17°C° 0 mm 3 mps 755 mmHg 40%
    12:00 +18°C° 0 mm 3 mps 755 mmHg 38%
    13:00 +19°C° 0 mm 3 mps 755 mmHg 36%
    14:00 +20°C° 0 mm 3 mps 755 mmHg 34%
    15:00 +20°C° 0 mm 3 mps 755 mmHg 34%
    16:00 +20°C° 0 mm 3 mps 755 mmHg 34%
    17:00 +20°C° 0 mm 3 mps 755 mmHg 34%
    18:00 +17°C° 0 mm 3 mps 755 mmHg 46%
    19:00 +15°C° 0 mm 2 mps 755 mmHg 57%
    20:00 +12°C° 0 mm 1 mps 755 mmHg 69%
    21:00 +10°C° 0 mm 2 mps 755 mmHg 71%
    22:00 +10°C° 0 mm 2 mps 756 mmHg 73%
    23:00 +9°C° 0 mm 2 mps 756 mmHg 76%

    9 June, Tuesday

    Time Temperature Precipitation Wind Pressure Humidity
    00:00 +8°C° 0 mm 2 mps 756 mmHg 76%
    01:00 +9°C° 0 mm 1 mps 756 mmHg 77%
    02:00 +9°C° 0 mm 1 mps 756 mmHg 78%
    03:00 +9°C° 0 mm 1 mps 756 mmHg 78%
    04:00 +9°C° 0 mm 1 mps 756 mmHg 77%
    05:00 +9°C° 0 mm 1 mps 757 mmHg 77%
    06:00 +11°C° 0 mm 1 mps 757 mmHg 69%
    07:00 +13°C° 0 mm 1 mps 757 mmHg 62%
    08:00 +16°C° 0 mm 1 mps 757 mmHg 54%
    09:00 +16°C° 0 mm 1 mps 757 mmHg 57%
    10:00 +16°C° 0 mm 1 mps 757 mmHg 59%
    11:00 +16°C° 0 mm 1 mps 757 mmHg 62%
    12:00 +16°C° 0 mm 1 mps 757 mmHg 65%
    13:00 +16°C° 0 mm 1 mps 757 mmHg 69%
    14:00 +14°C° 0 mm 0 mps 757 mmHg 72%
    15:00 +15°C° 0 mm 1 mps 757 mmHg 75%
    16:00 +15°C° 0 mm 1 mps 757 mmHg 77%
    17:00 +14°C° 0 mm 1 mps 758 mmHg 79%
    18:00 +14°C° 0 mm 1 mps 758 mmHg 80%
    19:00 +14°C° 0 mm 1 mps 758 mmHg 81%
    20:00 +13°C° 0 mm 1 mps 758 mmHg 82%
    21:00 +12°C° 0 mm 0 mps 758 mmHg 83%
    22:00 +12°C° 0 mm 0 mps 759 mmHg 83%
    23:00 +12°C° 0 mm 0 mps 759 mmHg 83%

    10 June, Wednesday

    Time Temperature Precipitation Wind Pressure Humidity
    00:00 +12°C° 0 mm 0 mps 759 mmHg 84%
    01:00 +13°C° 0 mm 1 mps 759 mmHg 85%
    02:00 +13°C° 0 mm 1 mps 759 mmHg 87%
    03:00 +13°C° 0 mm 1 mps 759 mmHg 88%
    04:00 +13°C° 0 mm 1 mps 759 mmHg 89%
    05:00 +13°C° 0 mm 1 mps 759 mmHg 91%
    06:00 +14°C° 0 mm 2 mps 759 mmHg 84%
    07:00 +16°C° 0 mm 2 mps 759 mmHg 77%
    08:00 +18°C° 0 mm 2 mps 760 mmHg 70%
    09:00 +20°C° 0 mm 3 mps 759 mmHg 66%
    10:00 +22°C° 0 mm 3 mps 759 mmHg 62%
    11:00 +25°C° 0 mm 4 mps 759 mmHg 58%
    12:00 +26°C° 0 mm 4 mps 759 mmHg 56%
    13:00 +28°C° 0 mm 5 mps 758 mmHg 53%
    14:00 +29°C° 0 mm 5 mps 758 mmHg 50%
    15:00 +29°C° 0 mm 6 mps 758 mmHg 51%
    16:00 +29°C° 0 mm 6 mps 758 mmHg 53%
    17:00 +28°C° 0 mm 6 mps 758 mmHg 54%
    18:00 +26°C° 0 mm 6 mps 758 mmHg 58%
    19:00 +23°C° 0 mm 6 mps 758 mmHg 62%
    20:00 +21°C° 0 mm 6 mps 758 mmHg 67%
    21:00 +20°C° 0 mm 6 mps 759 mmHg 65%
    22:00 +19°C° 0 mm 6 mps 759 mmHg 64%
    23:00 +17°C° 0 mm 6 mps 759 mmHg 62%
    Show more